Weather History for KENL - March, 2014

Change the Weather History Date:

Saturday, March 22, 2014

  Actual Average (KSLO) Record (KSLO)
Temperature  
Mean Temperature 44 °F -  
Max Temperature 50 °F 57 °F 79 °F (1988)
Min Temperature 36 °F 35 °F 19 °F (2002)
Degree Days  
Heating Degree Days 22    
Moisture  
Dew Point 30 °F    
Average Humidity 63    
Maximum Humidity 79    
Minimum Humidity 51    
Precipitation  
Precipitation 0.00 in - - ()
Sea Level Pressure  
Sea Level Pressure 30.16 in    
Wind  
Wind Speed 12 mph (NNW)    
Max Wind Speed 20 mph    
Max Gust Speed 26 mph    
Visibility 10 miles    
Events      
Averages and records for this station are not official NWS values.
T = Trace of Precipitation, MM = Missing Value Source: NWS Daily Summary

Daily Weather History Graph

Daily Weather History Graph

Search for Another Location

Airport or City:

Trip Planner

Search our weather history database for the weather conditions in past years. The results will help you decide how hot, cold, wet, or windy it might be!

Date:

Astronomy

Mar. 22, 2014 Rise Set
Actual Time 6:56 AM CDT 7:10 PM CDT
Civil Twilight 6:30 AM CDT 7:36 PM CDT
Nautical Twilight 5:59 AM CDT 8:07 PM CDT
Astronomical Twilight 5:27 AM CDT 8:39 PM CDT
Moon 12:25 AM CDT (3/22) 10:43 AM CDT (3/22)
Length of Visible Light 13h 06m
Length of Day
12h 13m
Waning Gibbous, 65% of the Moon is Illuminated
Mar 22
Waning Gibbous
Mar 23
Last Quarter
Mar 30
New
Apr 7
First Quarter
Apr 15
Full

Hourly Weather History & Observations

Time (CDT) Temp. Windchill Dew Point Humidity Pressure Visibility Wind Dir Wind Speed Gust Speed Precip Events Conditions
12:15 AM 51.6 °F - 35.6 °F 54% 29.96 in 10.0 mi NNW 8.1 mph - N/A   Clear
12:35 AM 50.4 °F - 35.6 °F 57% 29.97 in 10.0 mi NNW 9.2 mph - N/A   Clear
12:55 AM 49.5 °F - 35.6 °F 59% 29.97 in 10.0 mi NW 6.9 mph - N/A   Clear
1:15 AM 50.7 °F - 35.6 °F 56% 29.98 in 10.0 mi NNW 13.8 mph 18.4 mph N/A   Clear
1:35 AM 50.0 °F - 35.6 °F 58% 29.98 in 10.0 mi NNW 16.1 mph 21.9 mph N/A   Clear
1:55 AM 49.1 °F - 36.0 °F 61% 30.00 in 10.0 mi NNW 17.3 mph 26.5 mph N/A   Scattered Clouds
2:15 AM 48.0 °F - 35.4 °F 62% 30.00 in 10.0 mi NNW 11.5 mph 18.4 mph N/A   Scattered Clouds
2:35 AM 47.3 °F - 35.2 °F 63% 30.01 in 10.0 mi NW 11.5 mph - N/A   Clear
2:55 AM 46.0 °F 41.9 °F 35.6 °F 67% 30.02 in 10.0 mi NW 8.1 mph - N/A   Clear
3:15 AM 44.4 °F 37.9 °F 35.6 °F 71% 30.02 in 10.0 mi NNW 13.8 mph 19.6 mph N/A   Clear
3:35 AM 43.5 °F 37.1 °F 35.6 °F 74% 30.04 in 10.0 mi NNW 12.7 mph 24.2 mph N/A   Clear
3:55 AM 40.8 °F 32.9 °F 33.6 °F 76% 30.04 in 10.0 mi NNW 15.0 mph 25.3 mph N/A   Clear
4:15 AM 39.2 °F 29.6 °F 32.4 °F 76% 30.05 in 10.0 mi NNW 19.6 mph 25.3 mph N/A   Clear
4:35 AM 37.9 °F 28.5 °F 32.0 °F 79% 30.06 in 10.0 mi NNW 17.3 mph 23.0 mph N/A   Clear
4:55 AM 37.4 °F 29.3 °F 31.5 °F 79% 30.08 in 10.0 mi NNW 12.7 mph 20.7 mph N/A   Clear
5:15 AM 37.8 °F 29.0 °F 31.5 °F 78% 30.09 in 10.0 mi NNW 15.0 mph 21.9 mph N/A   Scattered Clouds
5:35 AM 37.9 °F 28.5 °F 31.1 °F 76% 30.10 in 10.0 mi NNW 17.3 mph 24.2 mph N/A   Overcast
5:55 AM 38.5 °F 31.6 °F 30.9 °F 74% 30.11 in 10.0 mi NNW 10.4 mph 17.3 mph N/A   Overcast
6:15 AM 38.5 °F 32.1 °F 31.1 °F 75% 30.12 in 10.0 mi NW 9.2 mph - N/A   Overcast
6:35 AM 38.5 °F 32.7 °F 31.1 °F 75% 30.14 in 10.0 mi NW 8.1 mph - N/A   Overcast
6:55 AM 38.3 °F 32.5 °F 30.9 °F 75% 30.15 in 10.0 mi North 8.1 mph - N/A   Mostly Cloudy
7:15 AM 37.6 °F 29.1 °F 30.2 °F 75% 30.16 in 10.0 mi NNW 13.8 mph 17.3 mph N/A   Scattered Clouds
7:35 AM 36.7 °F 28.0 °F 29.8 °F 76% 30.17 in 10.0 mi NNW 13.8 mph - N/A   Scattered Clouds
7:55 AM 37.0 °F 28.9 °F 29.1 °F 73% 30.18 in 10.0 mi NNW 12.7 mph 18.4 mph N/A   Scattered Clouds
8:15 AM 37.6 °F 29.6 °F 29.7 °F 73% 30.19 in 10.0 mi NNW 12.7 mph - N/A   Scattered Clouds
8:35 AM 37.6 °F 28.1 °F 29.1 °F 72% 30.19 in 10.0 mi NNW 17.3 mph - N/A   Scattered Clouds
8:55 AM 37.9 °F 28.9 °F 28.6 °F 69% 30.19 in 10.0 mi North 16.1 mph 23.0 mph N/A   Scattered Clouds
9:15 AM 39.4 °F 30.7 °F 28.9 °F 66% 30.20 in 10.0 mi North 16.1 mph 23.0 mph N/A   Scattered Clouds
9:35 AM 40.1 °F 32.0 °F 28.6 °F 63% 30.20 in 10.0 mi NNW 15.0 mph 19.6 mph N/A   Scattered Clouds
9:55 AM 40.3 °F 31.9 °F 28.2 °F 62% 30.20 in 10.0 mi NNW 16.1 mph - N/A   Clear
10:15 AM 41.2 °F 33.7 °F 28.4 °F 60% 30.22 in 10.0 mi NW 13.8 mph 19.6 mph N/A   Scattered Clouds
10:35 AM 41.9 °F 34.0 °F 28.6 °F 59% 30.22 in 10.0 mi NNW 16.1 mph - N/A   Scattered Clouds
10:55 AM 43.0 °F 36.8 °F 28.9 °F 58% 30.22 in 10.0 mi NNW 11.5 mph - N/A   Mostly Cloudy
11:15 AM 42.8 °F 36.2 °F 28.9 °F 58% 30.23 in 10.0 mi NW 12.7 mph - N/A   Mostly Cloudy
11:35 AM 44.2 °F 38.4 °F 28.4 °F 54% 30.23 in 10.0 mi NNW 11.5 mph 17.3 mph N/A   Scattered Clouds
11:55 AM 44.4 °F 39.0 °F 28.6 °F 54% 30.22 in 10.0 mi NNW 10.4 mph 16.1 mph N/A   Scattered Clouds
12:15 PM 44.8 °F 39.9 °F 29.3 °F 55% 30.22 in 10.0 mi WNW 9.2 mph 16.1 mph N/A   Scattered Clouds
12:35 PM 45.0 °F 42.6 °F 30.2 °F 56% 30.21 in 10.0 mi NNW 4.6 mph 20.7 mph N/A   Scattered Clouds
12:55 PM 44.6 °F 40.2 °F 29.1 °F 55% 30.21 in 10.0 mi NNW 8.1 mph 18.4 mph N/A   Mostly Cloudy
1:15 PM 45.5 °F 39.9 °F 30.0 °F 55% 30.21 in 10.0 mi WNW 11.5 mph 21.9 mph N/A   Scattered Clouds
1:35 PM 45.5 °F 39.6 °F 29.8 °F 54% 30.21 in 10.0 mi NW 12.7 mph 20.7 mph N/A   Mostly Cloudy
1:55 PM 46.0 °F 41.4 °F 30.0 °F 54% 30.20 in 10.0 mi NW 9.2 mph 17.3 mph N/A   Scattered Clouds
2:15 PM 46.0 °F 40.6 °F 30.6 °F 55% 30.19 in 10.0 mi WNW 11.5 mph - N/A   Scattered Clouds
2:35 PM 46.0 °F 39.3 °F 30.2 °F 54% 30.19 in 10.0 mi WNW 16.1 mph 21.9 mph N/A   Clear
2:55 PM 46.4 °F 41.1 °F 30.0 °F 53% 30.19 in 10.0 mi WNW 11.5 mph 18.4 mph N/A   Clear
3:15 PM 46.6 °F - 30.0 °F 53% 30.19 in 10.0 mi NW 15.0 mph - N/A   Clear
3:35 PM 46.8 °F - 30.0 °F 52% 30.19 in 10.0 mi NW 12.7 mph 17.3 mph N/A   Clear
3:55 PM 47.5 °F - 30.2 °F 51% 30.19 in 10.0 mi NNW 15.0 mph 18.4 mph N/A   Clear
4:15 PM 46.9 °F - 30.0 °F 52% 30.18 in 10.0 mi NW 13.8 mph 20.7 mph N/A   Clear
4:35 PM 46.0 °F 39.3 °F 29.5 °F 52% 30.19 in 10.0 mi WNW 16.1 mph 20.7 mph N/A   Clear
4:55 PM 46.0 °F 39.6 °F 29.8 °F 53% 30.19 in 10.0 mi NW 15.0 mph - N/A   Clear
5:15 PM 45.7 °F 40.2 °F 29.7 °F 54% 30.19 in 10.0 mi NW 11.5 mph 19.6 mph N/A   Clear
5:35 PM 45.9 °F 40.4 °F 29.5 °F 53% 30.20 in 10.0 mi NW 11.5 mph - N/A   Clear
5:55 PM 45.1 °F 39.1 °F 29.1 °F 54% 30.20 in 10.0 mi NNW 12.7 mph - N/A   Clear
6:15 PM 44.2 °F 38.4 °F 28.9 °F 55% 30.20 in 10.0 mi North 11.5 mph - N/A   Clear
6:35 PM 43.3 °F 37.2 °F 28.9 °F 57% 30.21 in 10.0 mi NNW 11.5 mph 17.3 mph N/A   Clear
6:55 PM 42.8 °F 37.0 °F 28.6 °F 57% 30.20 in 10.0 mi NNW 10.4 mph - N/A   Clear
7:15 PM 41.4 °F 36.2 °F 28.8 °F 61% 30.22 in 10.0 mi NW 8.1 mph - N/A   Clear
7:35 PM 40.8 °F 35.6 °F 28.8 °F 62% 30.22 in 10.0 mi NNW 8.1 mph - N/A   Clear
7:55 PM 40.3 °F 34.4 °F 28.8 °F 63% 30.23 in 10.0 mi NNW 9.2 mph - N/A   Clear
8:15 PM 40.3 °F 33.9 °F 29.3 °F 65% 30.23 in 10.0 mi NNW 10.4 mph - N/A   Clear
8:35 PM 39.9 °F 32.9 °F 28.9 °F 65% 30.24 in 10.0 mi NNW 11.5 mph - N/A   Clear
8:55 PM 39.0 °F 31.0 °F 28.2 °F 65% 30.24 in 10.0 mi NNW 13.8 mph 17.3 mph N/A   Clear
9:15 PM 38.7 °F 31.4 °F 28.4 °F 67% 30.25 in 10.0 mi NNW 11.5 mph - N/A   Clear
9:35 PM 38.7 °F 32.4 °F 28.2 °F 66% 30.26 in 10.0 mi NNW 9.2 mph - N/A   Clear
9:55 PM 38.3 °F 30.1 °F 28.2 °F 67% 30.25 in 10.0 mi NNW 13.8 mph - N/A   Clear
10:15 PM 38.3 °F 30.5 °F 28.0 °F 67% 30.26 in 10.0 mi NNW 12.7 mph 16.1 mph N/A   Scattered Clouds
10:35 PM 37.9 °F 30.0 °F 27.1 °F 65% 30.27 in 10.0 mi NNW 12.7 mph 17.3 mph N/A   Overcast
10:55 PM 37.4 °F 28.9 °F 27.0 °F 66% 30.27 in 10.0 mi North 13.8 mph 17.3 mph N/A   Overcast
11:15 PM 37.6 °F 30.0 °F 26.6 °F 65% 30.27 in 10.0 mi North 11.5 mph - N/A   Mostly Cloudy
11:35 PM 37.4 °F 29.3 °F 26.2 °F 64% 30.27 in 10.0 mi North 12.7 mph 16.1 mph N/A   Mostly Cloudy
11:55 PM 37.4 °F 30.8 °F 25.7 °F 63% 30.28 in 10.0 mi NNW 9.2 mph - N/A   Overcast